Location: Chervonnoye
(48.6000°N, 34.4000°E)
Time: 07:19:14
(UTC+00:00)

Nadezhda 1 Rocket - Pass Details

Date: 22 April 2021
Orbit: 940 x 1006 km, 83.0° (Epoch: 13 May)

Event Time Altitude Azimuth Distance (km) Brightness Sun altitude
Exits shadow 22:20:14 67° 249° (WSW) 1,087 4.0 -28.3°
Maximum altitude 22:20:46 70° 281° (W) 1,066 4.1 -28.2°
Drops below altitude 10° 22:27:09 10° 5° (N) 2,775 7.3 -28.0°
Sets 22:29:42 0° 8° (N) 3,721 8.3 -27.9°
